Summerville, SC

8:42 AM EDT on May 22, 2018 (GMT -0400)
Summerville

Weather History for KDYB - March, 2013

Change the Weather History Date:

Friday, March 15, 2013

  Actual Average (KCHS) Record (KCHS)
Temperature  
Mean Temperature 50 °F -  
Max Temperature 69 °F 69 °F 87 °F (1967)
Min Temperature 32 °F 45 °F 25 °F (1993)
Degree Days  
Heating Degree Days 14    
Moisture  
Dew Point 34 °F    
Average Humidity 56    
Maximum Humidity 100    
Minimum Humidity 28    
Precipitation  
Precipitation 0.00 in - - ()
Sea Level Pressure  
Sea Level Pressure 30.15 in    
Wind  
Wind Speed 3 mph (SW)    
Max Wind Speed 10 mph    
Max Gust Speed 16 mph    
Visibility 10 miles    
Events      
Averages and records for this station are not official NWS values.
T = Trace of Precipitation, MM = Missing Value Source: NWS Daily Summary

Daily Weather History Graph

Daily Weather History Graph

Search for Another Location

Airport or City:

Astronomy

Mar. 15, 2013 Rise Set
Actual Time 7:31 AM EDT 7:29 PM EDT
Civil Twilight 7:06 AM EDT 7:53 PM EDT
Nautical Twilight 6:37 AM EDT 8:22 PM EDT
Astronomical Twilight 6:08 AM EDT 8:51 PM EDT
Moon 9:34 AM EDT (3/15) 11:26 PM EDT (3/15)
Length of Visible Light 12h 47m
Length of Day
11h 58m
Waxing Crescent, 15% of the Moon is Illuminated
Mar 15
Waxing Crescent
Mar 19
First Quarter
Mar 27
Full
Apr 3
Last Quarter
Apr 10
New

Hourly Weather History & Observations

Time (EDT) Temp. Windchill Dew Point Humidity Pressure Visibility Wind Dir Wind Speed Gust Speed Precip Events Conditions
1:35 AM 33.8 °F 30.8 °F 32.0 °F 93% 30.22 in 10.0 mi South 3.5 mph - N/A   Clear
3:55 AM 35.6 °F - 32.0 °F 87% 30.18 in 10.0 mi Calm Calm - N/A   Clear
4:15 AM 35.6 °F - 32.0 °F 87% 30.17 in 10.0 mi Calm Calm - N/A   Clear
4:35 AM 33.8 °F - 32.0 °F 93% 30.17 in 10.0 mi Calm Calm - N/A   Clear
4:55 AM 33.8 °F - 32.0 °F 93% 30.18 in 10.0 mi Calm Calm - N/A   Clear
6:35 AM 32.0 °F - 32.0 °F 100% 30.20 in 10.0 mi Calm Calm - N/A   Clear
6:55 AM 32.0 °F - 32.0 °F 100% 30.21 in 10.0 mi Calm Calm - N/A   Clear
7:15 AM 32.0 °F - 32.0 °F 100% 30.22 in 10.0 mi Calm Calm - N/A   Clear
7:35 AM 32.0 °F - 32.0 °F 100% 30.22 in 10.0 mi Calm Calm - N/A   Clear
7:55 AM 32.0 °F - 32.0 °F 100% 30.22 in 10.0 mi Calm Calm - N/A   Clear
8:15 AM 32.0 °F - 32.0 °F 100% 30.22 in 10.0 mi Calm Calm - N/A   Clear
8:35 AM 33.8 °F - 33.8 °F 100% 30.24 in 10.0 mi Calm Calm - N/A   Clear
8:55 AM 37.4 °F - 32.0 °F 81% 30.24 in 10.0 mi Calm Calm - N/A   Clear
9:15 AM 41.0 °F - 33.8 °F 76% 30.23 in 10.0 mi Calm Calm - N/A   Clear
9:35 AM 42.8 °F - 33.8 °F 70% 30.24 in 10.0 mi Calm Calm - N/A   Clear
9:55 AM 44.6 °F - 33.8 °F 66% 30.24 in 10.0 mi Calm Calm - N/A   Clear
10:15 AM 46.4 °F 44.3 °F 32.0 °F 57% 30.24 in 10.0 mi North 4.6 mph - N/A   Clear
10:35 AM 50.0 °F - 32.0 °F 50% 30.24 in 10.0 mi Calm Calm - N/A   Clear
11:55 AM 55.4 °F - 28.4 °F 36% 30.21 in 10.0 mi Calm Calm - N/A   Clear
12:15 PM 59.0 °F - 30.2 °F 34% 30.20 in 10.0 mi Calm Calm - N/A   Clear
12:35 PM 59.0 °F - 30.2 °F 34% 30.20 in 10.0 mi Calm Calm - N/A   Clear
12:55 PM 60.8 °F - 30.2 °F 31% 30.19 in 10.0 mi NW 4.6 mph - N/A   Clear
1:15 PM 62.6 °F - 32.0 °F 32% 30.18 in 10.0 mi WSW 4.6 mph - N/A   Clear
1:35 PM 62.6 °F - 32.0 °F 32% 30.17 in 10.0 mi SW 4.6 mph - N/A   Clear
1:55 PM 64.4 °F - 32.0 °F 30% 30.16 in 10.0 mi WSW 5.8 mph - N/A   Clear
2:15 PM 64.4 °F - 33.8 °F 32% 30.15 in 10.0 mi West 6.9 mph - N/A   Clear
2:35 PM 66.2 °F - 33.8 °F 30% 30.14 in 10.0 mi West 10.4 mph - N/A   Clear
2:55 PM 66.2 °F - 33.8 °F 30% 30.12 in 10.0 mi WSW 6.9 mph - N/A   Clear
3:15 PM 68.0 °F - 35.6 °F 30% 30.10 in 10.0 mi SW 6.9 mph - N/A   Clear
3:35 PM 68.0 °F - 35.6 °F 30% 30.09 in 10.0 mi WSW 8.1 mph - N/A   Clear
3:55 PM 68.0 °F - 35.6 °F 30% 30.08 in 10.0 mi WSW 9.2 mph - N/A   Clear
4:15 PM 68.0 °F - 33.8 °F 28% 30.07 in 10.0 mi SW 8.1 mph - N/A   Clear
4:35 PM 68.0 °F - 33.8 °F 28% 30.06 in 10.0 mi West 8.1 mph - N/A   Clear
4:55 PM 69.8 °F - 35.6 °F 28% 30.06 in 10.0 mi SW 5.8 mph - N/A   Clear
5:15 PM 69.8 °F - 35.6 °F 28% 30.05 in 10.0 mi SW 8.1 mph - N/A   Clear
5:35 PM 69.8 °F - 35.6 °F 28% 30.04 in 10.0 mi SW 9.2 mph 16.1 mph N/A   Clear
5:55 PM 69.8 °F - 35.6 °F 28% 30.04 in 10.0 mi SSW 8.1 mph 16.1 mph N/A   Clear
6:15 PM 68.0 °F - 35.6 °F 30% 30.04 in 10.0 mi SW 3.5 mph - N/A   Clear
6:35 PM 68.0 °F - 35.6 °F 30% 30.03 in 10.0 mi SSW 5.8 mph - N/A   Clear
6:55 PM 66.2 °F - 35.6 °F 32% 30.04 in 10.0 mi SSW 3.5 mph - N/A   Clear
8:35 PM 57.2 °F - 41.0 °F 55% 30.05 in 10.0 mi South 4.6 mph - N/A   Clear
9:35 PM 55.4 °F - 42.8 °F 63% 30.05 in 10.0 mi South 6.9 mph - N/A   Clear
9:55 PM 53.6 °F - 44.6 °F 72% 30.05 in 10.0 mi South 8.1 mph - N/A   Clear